BAW370 LWSK-LTFJ

Flight info

Callsign BAW370
Flight time N/A
Altitude 35000
Route SIN2D SIN T215 VELBA/N0475F410 T343 MOREK DCT USALI DCT GERGI L614 ADORU UM19 IBODU IBODU1G
Aircraft B788/H-SADE1E2E3FGHIJ3J4J5J6LM1M2OP2RWXYZ/LB1D1

Departure

Time 2026-04-25 19:21
Airport Skopje International Airport (LWSK)

Arrival

Time N/A
Airport Istanbul Sabiha Gökçen International Airport (LTFJ)
Time Latitude Longitude Altitude Speed Heading
2026-04-25 18:57 41.96140 21.62549 761 ft 0 kts 79°
2026-04-25 19:14 41.96137 21.62526 789 ft 3 kts 79°
2026-04-25 19:14 41.96133 21.62501 789 ft 3 kts 79°
2026-04-25 19:15 41.96130 21.62477 789 ft 3 kts 79°
2026-04-25 19:15 41.96128 21.62458 789 ft 0 kts 79°
2026-04-25 19:17 41.96128 21.62459 789 ft 0 kts 79°
2026-04-25 19:17 41.96126 21.62469 789 ft 1 kts 123°
2026-04-25 19:17 41.96088 21.62517 789 ft 13 kts 151°
2026-04-25 19:18 41.95982 21.62557 774 ft 16 kts 182°
2026-04-25 19:18 41.95862 21.62520 770 ft 21 kts 171°
2026-04-25 19:18 41.95705 21.62574 772 ft 24 kts 166°
2026-04-25 19:18 41.95535 21.62632 770 ft 25 kts 166°
2026-04-25 19:19 41.95361 21.62693 770 ft 26 kts 165°
2026-04-25 19:19 41.95195 21.62747 768 ft 21 kts 189°
2026-04-25 19:19 41.95128 21.62617 767 ft 17 kts 253°
2026-04-25 19:19 41.95120 21.62567 768 ft 15 kts 273°
2026-04-25 19:20 41.95170 21.62493 771 ft 0 kts 344°
2026-04-25 19:20 41.95218 21.62475 771 ft 28 kts 345°
2026-04-25 19:20 41.95619 21.62337 770 ft 91 kts 344°
2026-04-25 19:20 41.96412 21.62060 776 ft 145 kts 345°
2026-04-25 19:21 41.97495 21.61663 1273 ft 163 kts 342°
2026-04-25 19:21 41.99770 21.60905 2786 ft 185 kts 346°
2026-04-25 19:21 42.01150 21.60851 3219 ft 219 kts 18°
2026-04-25 19:22 42.02379 21.62247 3726 ft 252 kts 59°
2026-04-25 19:22 42.02677 21.64625 4586 ft 266 kts 101°
2026-04-25 19:22 42.00148 21.67926 6608 ft 276 kts 173°
2026-04-25 19:23 41.98226 21.67695 7557 ft 280 kts 192°
2026-04-25 19:23 41.94726 21.69493 9448 ft 291 kts 123°
2026-04-25 19:23 41.94077 21.72051 10298 ft 297 kts 91°
2026-04-25 19:24 41.94349 21.74875 10621 ft 321 kts 75°
2026-04-25 19:24 41.94943 21.77903 10870 ft 348 kts 75°
2026-04-25 19:24 41.95559 21.84507 12496 ft 362 kts 87°
2026-04-25 19:25 41.95771 21.91321 14165 ft 369 kts 83°
2026-04-25 19:25 41.96004 21.94784 14930 ft 373 kts 83°
2026-04-25 19:25 41.96200 21.98252 15674 ft 377 kts 85°
2026-04-25 19:26 41.96361 22.01820 16393 ft 381 kts 85°
2026-04-25 19:26 41.96531 22.05363 17095 ft 385 kts 84°
2026-04-25 19:26 41.96725 22.09015 17795 ft 389 kts 84°
2026-04-25 19:26 41.96914 22.12646 18464 ft 393 kts 85°
2026-04-25 19:27 41.97094 22.16319 19058 ft 396 kts 85°
2026-04-25 19:27 41.97154 22.17547 19249 ft 398 kts 85°
2026-04-25 19:27 41.97462 22.23771 20238 ft 402 kts 84°
2026-04-25 19:27 41.97648 22.27545 20802 ft 405 kts 84°
2026-04-25 19:28 41.97834 22.31358 21363 ft 408 kts 84°
2026-04-25 19:28 41.98017 22.35159 21897 ft 411 kts 85°
2026-04-25 19:28 41.98064 22.37712 22239 ft 414 kts 90°
2026-04-25 19:28 41.97949 22.41619 22744 ft 417 kts 90°
2026-04-25 19:29 41.97852 22.45520 23253 ft 420 kts 90°
2026-04-25 19:29 41.97756 22.49477 23732 ft 423 kts 90°
2026-04-25 19:29 41.97651 22.53409 24160 ft 425 kts 90°
2026-04-25 19:29 41.97540 22.57411 24563 ft 427 kts 90°
2026-04-25 19:30 41.97431 22.61430 24953 ft 430 kts 90°
2026-04-25 19:30 41.97324 22.65409 25341 ft 432 kts 90°
2026-04-25 19:30 41.97211 22.69473 25734 ft 434 kts 90°
2026-04-25 19:30 41.97096 22.73540 26130 ft 436 kts 90°
2026-04-25 19:31 41.96981 22.77583 26515 ft 438 kts 90°
2026-04-25 19:31 41.96935 22.81724 26894 ft 438 kts 83°
2026-04-25 19:31 41.97446 22.85715 27271 ft 437 kts 72°
2026-04-25 19:31 41.98566 22.89520 27659 ft 437 kts 60°
2026-04-25 19:32 42.00236 22.92915 28032 ft 437 kts 48°
2026-04-25 19:32 42.02345 22.95887 28425 ft 437 kts 44°
2026-04-25 19:32 42.04471 22.98743 28954 ft 436 kts 44°
2026-04-25 19:32 42.05935 23.00691 29329 ft 435 kts 44°
2026-04-25 19:33 42.08781 23.04477 30081 ft 433 kts 44°
2026-04-25 19:33 42.10922 23.07345 30569 ft 432 kts 44°
2026-04-25 19:33 42.13045 23.10195 31059 ft 430 kts 43°
2026-04-25 19:33 42.15147 23.13012 31569 ft 429 kts 43°
2026-04-25 19:34 42.17262 23.15847 32094 ft 427 kts 43°
2026-04-25 19:34 42.19377 23.18688 32648 ft 425 kts 43°
2026-04-25 19:34 42.21470 23.21503 33158 ft 424 kts 43°
2026-04-25 19:34 42.23526 23.24271 33732 ft 422 kts 43°
2026-04-25 19:35 42.25611 23.27117 34249 ft 421 kts 46°
2026-04-25 19:35 42.27332 23.30272 34678 ft 425 kts 57°
2026-04-25 19:35 42.28607 23.33931 35023 ft 431 kts 68°
2026-04-25 19:35 42.29318 23.37895 35052 ft 442 kts 81°
2026-04-25 19:36 42.29651 23.46175 35037 ft 437 kts 84°
2026-04-25 19:36 42.29887 23.54323 35026 ft 435 kts 84°
2026-04-25 19:37 42.30139 23.62539 35025 ft 435 kts 84°
2026-04-25 19:37 42.29854 23.70685 35036 ft 437 kts 91°
2026-04-25 19:38 42.29399 23.78885 35042 ft 437 kts 91°
2026-04-25 19:38 42.28935 23.87079 35030 ft 437 kts 91°
2026-04-25 19:39 42.28467 23.95247 35034 ft 436 kts 91°
2026-04-25 19:39 42.27992 24.03435 35030 ft 437 kts 91°
2026-04-25 19:40 42.27512 24.11615 35019 ft 437 kts 91°
2026-04-25 19:40 42.27026 24.19783 35019 ft 437 kts 91°
2026-04-25 19:41 42.26532 24.27990 35003 ft 437 kts 91°
2026-04-25 19:41 42.26121 24.34754 35002 ft 436 kts 91°
2026-04-25 19:42 42.25536 24.44252 34995 ft 435 kts 91°
2026-04-25 19:42 42.25028 24.52405 34993 ft 435 kts 91°
2026-04-25 19:43 42.24516 24.60531 34997 ft 436 kts 91°
2026-04-25 19:43 42.23994 24.68716 34995 ft 436 kts 91°
2026-04-25 19:44 42.23470 24.76842 34995 ft 436 kts 91°
2026-04-25 19:44 42.22939 24.84992 34998 ft 435 kts 91°
2026-04-25 19:45 42.22401 24.93146 34999 ft 435 kts 91°
2026-04-25 19:45 42.21861 25.01260 34992 ft 435 kts 91°
2026-04-25 19:46 42.21314 25.09369 34991 ft 435 kts 91°
2026-04-25 19:46 42.20760 25.17514 34991 ft 435 kts 92°
2026-04-25 19:47 42.20202 25.25627 34991 ft 436 kts 92°
2026-04-25 19:47 42.19638 25.33741 34985 ft 435 kts 92°
2026-04-25 19:48 42.19065 25.41899 34988 ft 435 kts 92°
2026-04-25 19:48 42.18483 25.49998 34989 ft 435 kts 94°
2026-04-25 19:49 42.17792 25.53991 34999 ft 441 kts 107°
2026-04-25 19:49 42.17427 25.55304 34995 ft 442 kts 108°
2026-04-25 19:49 42.14415 25.65573 34986 ft 441 kts 108°
2026-04-25 19:50 42.11034 25.77090 34988 ft 440 kts 108°
2026-04-25 19:51 42.08775 25.84734 34987 ft 440 kts 108°
2026-04-25 19:51 42.06516 25.92368 34991 ft 440 kts 108°
2026-04-25 19:52 42.04251 25.99997 34992 ft 439 kts 108°
2026-04-25 19:52 42.01982 26.07617 34998 ft 439 kts 108°
2026-04-25 19:53 41.99704 26.15244 34998 ft 439 kts 109°
2026-04-25 19:53 41.97429 26.22841 35001 ft 439 kts 109°
2026-04-25 19:54 41.95147 26.30436 35007 ft 439 kts 109°
2026-04-25 19:54 41.92849 26.38066 35004 ft 438 kts 109°
2026-04-25 19:55 41.90571 26.45605 35001 ft 439 kts 109°
2026-04-25 19:55 41.88266 26.53211 35003 ft 439 kts 109°
2026-04-25 19:55 41.86949 26.56875 35016 ft 441 kts 120°
2026-04-25 19:56 41.85082 26.60224 35007 ft 445 kts 127°
2026-04-25 19:56 41.81137 26.66602 35005 ft 444 kts 127°
2026-04-25 19:57 41.77205 26.72958 35002 ft 444 kts 127°
2026-04-25 19:57 41.73261 26.79321 35013 ft 444 kts 127°
2026-04-25 19:58 41.69321 26.85659 35016 ft 444 kts 127°
2026-04-25 19:58 41.65381 26.91989 35009 ft 443 kts 127°
2026-04-25 19:59 41.61426 26.98325 35013 ft 443 kts 127°
2026-04-25 19:59 41.57471 27.04651 35013 ft 443 kts 127°
2026-04-25 20:00 41.53331 27.10776 35011 ft 443 kts 132°
2026-04-25 20:00 41.49038 27.16658 35017 ft 443 kts 132°
2026-04-25 20:00 41.46890 27.19594 34860 ft 441 kts 132°
2026-04-25 20:01 41.42576 27.25471 33735 ft 444 kts 132°